TimeCST,TemperatureF,Dew PointF,Humidity,Sea Level PressureIn,VisibilityMPH,Wind Direction,Wind SpeedMPH,Gust SpeedMPH,PrecipitationIn,Events,Conditions,WindDirDegrees,DateUTC
12:10 AM,26.1,23.0,88,30.40,5.0,North,13.8,23.0,N/A,Snow,Light Snow,350,2013-11-22 06:10:00
12:30 AM,25.7,23.2,90,30.41,2.5,North,15.0,25.3,N/A,Snow,Light Snow,350,2013-11-22 06:30:00
12:50 AM,25.3,22.8,90,30.41,3.0,North,15.0,23.0,N/A,Snow,Light Snow,350,2013-11-22 06:50:00
1:10 AM,24.8,22.5,91,30.43,3.0,NNW,12.7,24.2,N/A,Snow,Light Snow,340,2013-11-22 07:10:00
1:30 AM,24.4,22.1,91,30.43,2.5,North,18.4,26.5,N/A,Snow,Light Snow,350,2013-11-22 07:30:00
1:50 AM,24.3,21.6,89,30.44,4.0,NNW,15.0,-,N/A,,Overcast,340,2013-11-22 07:50:00
2:10 AM,24.4,21.7,89,30.44,3.0,North,13.8,19.6,N/A,Snow,Light Snow,360,2013-11-22 08:10:00
2:30 AM,24.1,21.4,89,30.44,3.0,North,11.5,20.7,N/A,Snow,Light Snow,360,2013-11-22 08:30:00
2:50 AM,23.9,21.4,90,30.44,3.0,North,13.8,-,N/A,Snow,Light Snow,360,2013-11-22 08:50:00
3:10 AM,23.7,21.2,90,30.44,5.0,North,12.7,17.3,N/A,Snow,Light Snow,360,2013-11-22 09:10:00
3:30 AM,23.4,20.8,90,30.45,10.0,North,11.5,17.3,N/A,Snow,Light Snow,350,2013-11-22 09:30:00
3:50 AM,23.0,20.3,89,30.44,10.0,North,10.4,-,N/A,,Overcast,350,2013-11-22 09:50:00
4:10 AM,23.0,19.4,86,30.45,10.0,North,10.4,20.7,N/A,,Overcast,350,2013-11-22 10:10:00
4:30 AM,23.0,19.9,88,30.46,10.0,NNW,12.7,18.4,N/A,,Overcast,340,2013-11-22 10:30:00
4:50 AM,23.0,19.4,86,30.46,10.0,NNW,11.5,-,N/A,,Overcast,340,2013-11-22 10:50:00
5:10 AM,22.6,18.7,85,30.48,10.0,NNW,12.7,17.3,N/A,,Overcast,340,2013-11-22 11:10:00
5:29 AM,22.1,17.6,83,30.48,10.0,NNW,11.5,-,N/A,,Scattered Clouds,340,2013-11-22 11:29:00
5:50 AM,21.2,17.2,85,30.49,10.0,NNW,9.2,-,N/A,,Clear,340,2013-11-22 11:50:00
6:10 AM,20.3,16.5,85,30.50,10.0,NNW,5.8,-,N/A,,Clear,330,2013-11-22 12:10:00
6:30 AM,19.0,15.3,85,30.50,10.0,NNW,9.2,-,N/A,,Clear,330,2013-11-22 12:30:00
6:50 AM,18.5,14.9,86,30.51,10.0,NNW,9.2,-,N/A,,Clear,340,2013-11-22 12:50:00
7:09 AM,18.3,14.5,85,30.51,10.0,NNW,9.2,-,N/A,,Clear,340,2013-11-22 13:09:00
7:30 AM,18.1,14.2,84,30.51,10.0,NNW,5.8,-,N/A,,Clear,340,2013-11-22 13:30:00
7:50 AM,18.3,14.0,83,30.51,10.0,NNW,8.1,-,N/A,,Clear,340,2013-11-22 13:50:00
8:10 AM,19.0,14.5,83,30.52,10.0,NNW,10.4,-,N/A,,Clear,340,2013-11-22 14:10:00
8:30 AM,19.4,14.7,82,30.52,10.0,NNW,10.4,-,N/A,,Clear,330,2013-11-22 14:30:00
8:49 AM,19.9,15.3,82,30.52,10.0,NNW,9.2,-,N/A,,Clear,340,2013-11-22 14:49:00
9:10 AM,20.7,15.8,81,30.52,10.0,North,6.9,-,N/A,,Clear,350,2013-11-22 15:10:00
9:30 AM,21.7,16.0,78,30.51,10.0,North,8.1,-,N/A,,Clear,360,2013-11-22 15:30:00
9:50 AM,23.0,16.2,75,30.53,10.0,NNW,8.1,-,N/A,,Clear,340,2013-11-22 15:50:00
10:10 AM,23.4,16.5,75,30.54,10.0,NW,12.7,-,N/A,,Clear,320,2013-11-22 16:10:00
10:30 AM,23.9,16.7,74,30.55,10.0,NW,10.4,-,N/A,,Clear,320,2013-11-22 16:30:00
10:50 AM,24.1,17.6,76,30.55,10.0,NW,10.4,-,N/A,,Clear,310,2013-11-22 16:50:00
11:10 AM,24.3,17.1,74,30.54,10.0,North,10.4,-,N/A,,Clear,350,2013-11-22 17:10:00
11:30 AM,25.5,17.4,71,30.52,10.0,NNW,8.1,-,N/A,,Clear,340,2013-11-22 17:30:00
11:49 AM,25.0,18.1,75,30.52,10.0,WNW,6.9,-,N/A,,Clear,300,2013-11-22 17:49:00
12:10 PM,26.4,16.7,67,30.53,10.0,WNW,5.8,-,N/A,,Clear,300,2013-11-22 18:10:00
12:30 PM,27.1,15.6,62,30.53,10.0,West,6.9,-,N/A,,Clear,280,2013-11-22 18:30:00
12:50 PM,27.5,18.3,68,30.53,10.0,West,9.2,-,N/A,,Clear,270,2013-11-22 18:50:00
1:10 PM,28.0,17.8,65,30.53,10.0,West,8.1,-,N/A,,Clear,270,2013-11-22 19:10:00
1:30 PM,27.9,17.1,64,30.52,10.0,West,10.4,-,N/A,,Clear,280,2013-11-22 19:30:00
1:50 PM,28.2,18.1,66,30.51,10.0,West,10.4,-,N/A,,Clear,260,2013-11-22 19:50:00
2:09 PM,28.2,16.7,62,30.51,10.0,West,10.4,-,N/A,,Clear,260,2013-11-22 20:09:00
2:30 PM,28.6,17.2,63,30.50,10.0,WSW,9.2,-,N/A,,Clear,250,2013-11-22 20:30:00
2:50 PM,28.6,15.6,58,30.49,10.0,West,8.1,-,N/A,,Clear,260,2013-11-22 20:50:00
3:10 PM,28.9,15.8,58,30.49,10.0,WSW,6.9,-,N/A,,Clear,250,2013-11-22 21:10:00
3:30 PM,28.4,14.7,57,30.48,10.0,WSW,10.4,-,N/A,,Clear,250,2013-11-22 21:30:00
3:49 PM,28.2,13.8,55,30.48,10.0,SW,8.1,-,N/A,,Clear,230,2013-11-22 21:49:00
4:10 PM,27.5,13.6,56,30.47,10.0,SW,9.2,-,N/A,,Clear,230,2013-11-22 22:10:00
4:30 PM,26.4,13.3,58,30.47,10.0,WSW,6.9,-,N/A,,Clear,240,2013-11-22 22:30:00
4:49 PM,25.5,13.8,61,30.47,10.0,SW,9.2,-,N/A,,Clear,220,2013-11-22 22:49:00
5:10 PM,25.3,14.2,63,30.46,10.0,SW,8.1,-,N/A,,Clear,230,2013-11-22 23:10:00
5:30 PM,24.6,14.4,65,30.46,10.0,SW,8.1,-,N/A,,Clear,230,2013-11-22 23:30:00
5:50 PM,24.3,14.2,65,30.46,10.0,WSW,8.1,-,N/A,,Clear,240,2013-11-22 23:50:00
6:10 PM,23.5,14.0,67,30.46,10.0,SW,6.9,-,N/A,,Clear,230,2013-11-23 00:10:00
6:30 PM,23.7,13.8,66,30.46,10.0,WSW,10.4,-,N/A,,Clear,240,2013-11-23 00:30:00
6:50 PM,23.7,13.8,66,30.45,10.0,WSW,10.4,-,N/A,,Clear,240,2013-11-23 00:50:00
7:09 PM,23.5,14.0,67,30.45,10.0,WSW,11.5,17.3,N/A,,Clear,240,2013-11-23 01:09:00
7:30 PM,23.7,14.4,67,30.45,10.0,WSW,13.8,-,N/A,,Clear,240,2013-11-23 01:30:00
7:50 PM,23.5,14.7,69,30.44,10.0,WSW,13.8,19.6,N/A,,Clear,250,2013-11-23 01:50:00
8:10 PM,23.7,14.5,68,30.45,10.0,West,17.3,20.7,N/A,,Clear,260,2013-11-23 02:10:00
8:30 PM,23.0,14.0,68,30.45,10.0,West,17.3,21.9,N/A,,Clear,280,2013-11-23 02:30:00
8:50 PM,23.5,14.0,67,30.46,10.0,WNW,13.8,21.9,N/A,,Clear,290,2013-11-23 02:50:00
9:10 PM,23.2,14.0,68,30.46,10.0,WNW,13.8,-,N/A,,Clear,300,2013-11-23 03:10:00
9:29 PM,23.7,14.2,67,30.46,10.0,NW,13.8,23.0,N/A,,Clear,310,2013-11-23 03:29:00
9:50 PM,23.4,14.4,68,30.47,10.0,NW,13.8,21.9,N/A,,Scattered Clouds,320,2013-11-23 03:50:00
10:10 PM,22.8,14.4,70,30.47,10.0,NW,12.7,17.3,N/A,,Scattered Clouds,320,2013-11-23 04:10:00
10:30 PM,22.6,15.1,73,30.48,10.0,NW,18.4,25.3,N/A,,Scattered Clouds,320,2013-11-23 04:30:00
10:50 PM,21.9,16.5,80,30.48,10.0,NW,15.0,-,N/A,,Scattered Clouds,320,2013-11-23 04:50:00
11:10 PM,22.5,17.6,82,30.48,10.0,NW,16.1,23.0,N/A,,Mostly Cloudy,320,2013-11-23 05:10:00
11:30 PM,22.5,17.4,81,30.48,10.0,NW,16.1,23.0,N/A,Snow,Light Snow,320,2013-11-23 05:30:00
11:50 PM,20.5,10.4,65,30.49,10.0,NNW,19.6,25.3,N/A,,Scattered Clouds,340,2013-11-23 05:50:00